Location: Oberwangen
(47.4286°N, 8.9679°E)
Time: 08:10:19
(UTC+00:00)

BREEZE-M DEB (TANK) - Visible Passes

Search period start: 28 October 2021 00:00
Search period end: 07 November 2021 00:00
Orbit: 357 x 16545 km, 49.4° (Epoch: 27 October)

Date Brightness Start Highest point End Pass type
(mag) Time Alt. Az. Time Alt. Az. Time Alt. Az.
28 Oct 9.8 00:50:49 10° ESE 01:30:40 15° E 01:55:51 10° ENE visible
28 Oct 8.0 04:39:08 10° SSW 07:00:56 75° SE 07:25:19 10° ENE visible
29 Oct 9.5 01:06:07 10° SE 02:30:04 27° E 03:06:42 10° ENE visible
29 Oct 7.6 05:48:50 10° SW 08:06:38 85° SSE 08:25:34 10° ENE visible
30 Oct 9.2 01:39:53 10° SSE 03:32:14 40° ESE 04:10:41 10° ENE visible
31 Oct 8.8 02:26:10 10° S 04:36:52 54° ESE 05:12:36 10° ENE visible
01 Nov 8.4 03:21:33 10° S 05:43:08 67° SE 06:13:35 10° ENE visible
02 Nov 9.6 00:19:43 10° ESE 01:17:06 19° E 01:48:53 10° ENE visible
02 Nov 8.0 04:24:32 10° SSW 06:49:45 79° SSE 07:14:04 10° ENE visible
03 Nov 9.4 00:41:33 10° SE 02:16:57 31° ESE 02:56:27 10° ENE visible
03 Nov 7.7 05:35:51 10° SW 07:55:35 88° SSE 08:14:16 10° ENE visible
04 Nov 9.1 01:19:22 10° SSE 03:19:36 45° ESE 03:59:40 10° ENE visible
05 Nov 8.8 02:08:27 10° S 04:24:43 58° SE 05:01:18 10° ENE visible
05 Nov 9.7 23:53:06 10° E 00:05:47 11° E 00:16:39 10° ENE visible
06 Nov 8.4 03:05:43 10° S 05:31:27 71° SE 06:02:09 10° ENE visible
